Regional Weather Roundup
Issued by NWS Upton, NY

Current Version | Previous Version | Text Only | Print | Product List | Glossary On
Versions: 1 2 3 4 5 6 7 8 9 10 11 12 13 14 15 16 17 18 19 20 21 22 23 24 25 26 27 28 29 30 31 32 33 34 35 36 37 38 39 40 41 42 43 44 45 46 47 48 49 50
000 ASUS41 KOKX 231504 RWROKX REGIONAL WEATHER ROUNDUP NATIONAL WEATHER SERVICE NEW YORK NY 1100 AM EDT SAT JUL 23 2016 NOTE: "FAIR" INDICATES FEW OR NO CLOUDS BELOW 12,000 FEET WITH NO SIGNIFICANT WEATHER AND/OR OBSTRUCTIONS TO VISIBILITY. NYZ071-072-176-178-NJZ106-104-231600- NEW YORK CITY METRO AREA CITY SKY/WX TMP DP RH WIND PRES REMARKS Central Park SUNNY 88 61 40 MISG 29.88S LaGuardia APRT MOSUNNY 90 61 37 W7 29.84F HX 90 Kennedy INTL MOSUNNY 93 56 28 W14 29.86S HX 91 Newark/Liberty MOSUNNY 91 62 37 W15G22 29.85F HX 91 BRNX BOT. GARD N/A 90 61 37 W8 29.86R Wall St Helipt SUNNY 90 64 43 W9G18 29.86S HX 91 Teterboro SUNNY 89 60 37 W10 29.84S $$ NYZ177-179-078>081-231600- LONG ISLAND NEW YORK CITY SKY/WX TMP DP RH WIND PRES REMARKS FARMINGDALE SUNNY 89 61 38 NW10G18 29.85S ISLIP MOSUNNY 89 62 40 NW12 29.84S SHIRLEY SUNNY 90 62 39 W12 29.84F HX 90 RIVERHEAD NOT AVBL WESTHAMPTON SUNNY 91 59 33 NW12 29.84S HX 90 SOUTHAMPTON N/A 86 66 51 NW12 29.79R BRIDGEHAMPTON N/A 84 68 58 E3 29.82R EAST HAMPTON FAIR 85 64 49 W9G21 29.81S MONTAUK POINT N/A 82 68 62 W12 29.82R $$ NYZ052-065-067-231600- HUDSON VALLEY CITY SKY/WX TMP DP RH WIND PRES REMARKS WHITE PLAINS SUNNY 87 61 41 NW15 29.86S NEWBURGH SUNNY 86 66 51 W14 29.87S MONTGOMERY SUNNY 87 65 47 NW14G21 29.85F POUGHKEEPSIE SUNNY 88 62 41 W9 29.82F ALBANY MOSUNNY 85 61 44 NW16 29.82S $$ NJZ001-105-106-008-010-013-015-019>022-104-231600- NEW JERSEY CITY SKY/WX TMP DP RH WIND PRES REMARKS NEWARK/LIBERTY MOSUNNY 91 62 37 W15G22 29.85F HX 91 TETERBORO SUNNY 89 60 37 W10 29.84S CALDWELL SUNNY 89 62 40 NW10 29.87R MORRISTOWN SUNNY 90 55 31 NW14G20 29.87F SOMERVILLE SUNNY 90 63 40 W8 29.86S HX 91 SUSSEX SUNNY 87 64 46 W8 29.88S ANDOVER N/A 85 63 47 VRB5 29.90S TRENTON SUNNY 88 71 57 SW5 29.89S HX 94 MILLVILLE SUNNY 91 71 51 W12 29.92R HX 97 ATLANTIC CITY SUNNY 90 71 53 W12 29.90S HX 96 WRIGHTSTOWN MOSUNNY 90 71 52 W12 29.86F HX 96 TOMS RIVER SUNNY 90 71 53 NW10 29.89S HX 96 BELMAR NOT AVBL $$ PAZ047>061-062-071-231600- EASTERN PENNSYLVANIA CITY SKY/WX TMP DP RH WIND PRES REMARKS PHILADELPHIA MOSUNNY 89 70 53 W8 29.91R HX 94 ALLENTOWN SUNNY 89 64 43 W7 29.91S HX 90 SCRANTON SUNNY 88 57 34 N18G24 29.92R $$ CTZ002-004>006-009-010-012-RIZ004-006-007-MAZ004-011-015-231600- SOUTHERN NEW ENGLAND IN CT CITY SKY/WX TMP DP RH WIND PRES REMARKS BRADLEY INTL MOSUNNY 87 63 44 W14 29.80S HARTFORD SUNNY 89 63 41 W10G20 29.80S HX 90 DANBURY SUNNY 85 63 47 W8 29.86S WTRBRY/OXFORD SUNNY 82 63 51 W6 29.88S BRIDGEPORT SUNNY 89 62 40 W9 29.82S MERIDEN SUNNY 88 62 41 NW12 29.82S NEW HAVEN SUNNY 86 65 49 VRB5 29.82S CHESTER FAIR 86 63 45 W8G15 29.83S GROTON SUNNY 90 62 39 W13 29.79R HX 90 WILLIMANTIC NOT AVBL IN RI CITY SKY/WX TMP DP RH WIND PRES REMARKS PROVIDENCE MOSUNNY 86 66 51 W12 29.78R BLOCK ISLAND SUNNY N/A N/A N/A W16 29.80 WESTERLY SUNNY 89 59 36 VRB7 29.79S IN MA CITY SKY/WX TMP DP RH WIND PRES REMARKS BOSTON SUNNY 91 59 33 W10G21 29.73F HX 90 WORCESTER SUNNY 82 61 48 W16 29.82R WESTFIELD SUNNY 88 61 40 W10G18 29.80S PROVINCETOWN SUNNY 83 69 62 W7 29.76S NANTUCKET SUNNY 78 71 79 W15 29.78S $$ ANZ330-335-338-340-345-350-353-355-231600- COASTAL MARINE OBSERVATIONS STATION/POSITION TIME SKY/WX TEMP WIND PRES VSBY WAVE AIR SEA DIR/SP/G HT/PER (UTC) (F) (DEG/KT/KT) (MB) (MI) (FT/S) NY HARB ENTRANCE 1350 76 72 240/ 8/ 8 1010.7 3/ 6 20S FIRE ISLAND 1350 76 73 290/ 10/ 12 1010.6 4/ 7 GREAT SOUTH BAY 1430 84 80 300/ 10/ 16 N/A 23 SSW MONTAUK P 1350 73 71 260/ 6/ 6 1010.2 4/ 6 15 E BARNEGAT LI 1422 74 N/A 3/ 6 HUDSON CANYON 1350 78 76 1010.9 5/ 7 KINGS POINT 1400 81 74 1010.7 EXECUTION ROCKS 1400 84 280/ 8/ 14 N/A CENTRAL LI SOUND 1400 76 72 280/ 10/ 12 N/A 1/ 3 EASTERN LI SOUND 1400 74 69 260/ 8/ 12 N/A ROBBINS REEF 1400 85 290/ 18/ 23 1010.4 $$ >>>>>>>>>>>>>>>>>>>>>>>>>>>> KEY <<<<<<<<<<<<<<<<<<<<<<<<<<< > < > SKY/WX - SKY CONDITION/PRESENT WEATHER < > TMP - TEMPERATURE IN FAHRENHEIT < > DP - DEWPOINT IN FAHRENHEIT < > RH - RELATIVE HUMIDITY IN PERCENT < > WIND - DIRECTION AND SPEED IN MPH < > PRES - MEAN SEA LEVEL PRESSURE IN INCHES OF HG < > WCI - WIND CHILL INDEX < > VSB - VISIBILITY IN MILES < > HX - HEAT INDEX < > TC - TEMPERATURE IN CELSIUS < > VRB - VARIABLE WIND DIRECTION < > < >>>>>>>>>>>>>>>>>>>>>>>>>>>> KEY <<<<<<<<<<<<<<<<<<<<<<<<<<<

USA.gov is the U.S. government's official web portal to all federal, state and local government web resources and services.